SCP
0 0 0 0 0 0 0 0 0 0 0 0 0 0 0 0 0 0 0 0 0 0 0 0 0 0 0 0 0 0 0 0 0 0 0 0 0 0 0 0 0 0 0 0 0 0 0 0 0
0 0 0 0 0 0 0 0 0 0 0 0 0 0 0 0 0 0 0 0 0 0 0 0 0 0 0 0 0 0 0 0 0 0 0 0 0 0 0 0 0 0 0 0 0 0 0 0 0
0 0 0 0 0 0 0 0 0 0 0 0 0 0 0 0 0 0 0 0 0 0 0 0 0 0 0 0 0 0 0 0 0 0 0 0 0 0 0 0 0 0 0 0 0 0 0 0 0
0 0 0 0 0 0 0 0 0 0 0 0 0 0 0 0 0 0 0 0 0 0 0 0 0 0 0 0 0 0 0 0 0 0 0 0 0 0 0 0 0 0 0 0 0 0 0 0 0
0 0 0 0 0 0 0 0 0 0 0 0 0 0 0 0 0 0 0 0 0 0 0 0 0 0 0 0 0 0 0 0 0 0 0 0 0 0 0 0 0 0 0 0 0 0 0 0 0
0 0 0 0 0 0 0 0 0 0 0 0 0 0 0 0 0 0 0 0 0 0 0 0 0 0 0 0 0 0 0 0 0 0 0 0 0 0 0 0 0 0 0 0 0 0 0 0 0
0 0 0 0 0 0 0 0 0 0 0 0 0 0 0 0 0 0 0 0 0 0 0 0 0 0 0 0 0 0 0 0 0 0 0 0 0 0 0 0 0 0 0 0 0 0 0 0 0
0 0 0 0 0 0 0 0 0 0 0 0 0 0 0 0 0 0 0 0 0 0 0 0 0 0 0 0 0 0 0 0 0 0 0 0 0 0 0 0 0 0 0 0 0 0 0 0 0
0 0 0 0 0 0 0 0 0 0 0 0 0 0 0 0 0 0 0 0 0 0 0 0 0 0 0 0 0 0 0 0 0 0 0 0 0 0 0 0 0 0 0 0 0 0 0 0 0
0 0 0 0 0 0 0 0 0 0 0 0 0 0 0 0 0 0 0 0 0 0 0 0 0 0 0 0 0 0 0 0 0 0 0 0 0 0 0 0 0 0 0 0 0 0 0 0 0
0 0 0 0 0 0 0 0 0 0 0 0 0 0 0 0 0 0 0 0 0 0 0 0 0 0 0 0 0 0 0 0 0 0 0 0 0 0 0 0 0 0 0 0 0 0 0 0 0
0 0 0 0 0 0 0 0 0 0 0 0 0 0 0 0 0 0 0 0 0 0 0 0 0 0 0 0 0 0 0 0 0 0 0 0 0 0 0 0 0 0 0 0 0 0 0 0 0
0 0 0 0 0 0 0 0 0 0 0 0 0 0 0 0 0 0 0 0 0 0 0 0 0 0 0 0 0 0 0 0 0 0 0 0 0 0 0 0 0 0 0 0 0 0 0 0 0
0 0 0 0 0 0 0 0 0 0 0 0 0 0 0 0 0 0 0 0 0 0 0 0 0 0 0 0 0 0 0 0 0 0 0 0 0 0 0 0 0 0 0 0 0 0 0 0 0
0 0 0 0 0 0 0 0 0 0 0 0 0 0 0 0 0 0 0 0 0 0 0 0 0 0 0 0 0 0 0 0 0 0 0 0 0 0 0 0 0 0 0 0 0 0 0 0 0
0 0 0 0 0 0 0 0 0 0 0 0 0 0 0 0 0 0 0 0 0 0 0 0 0 0 0 0 0 0 0 0 0 0 0 0 0 0 0 0 0 0 0 0 0 0 0 0 0
0 0 0 0 0 0 0 0 0 0 0 0 0 0 0 0 0 0 0 0 0 0 0 0 0 0 0 0 0 0 0 0 0 0 0 0 0 0 0 0 0 0 0 0 0 0 0 0 0
0 0 0 0 0 0 0 0 0 0 0 0 0 0 0 0 0 0 0 0 0 0 0 0 0 0 0 0 0 0 0 0 0 0 0 0 0 0 0 0 0 0 0 0 0 0 0 0 0
0 0 0 0 0 0 0 0 0 0 0 0 0 0 0 0 0 0 0 0 0 0 0 0 0 0 0 0 0 0 0 0 0 0 0 0 0 0 0 0 0 0 0 0 0 0 0 0 0
0 0 0 0 0 0 0 0 0 0 0 0 0 0 0 0 0 0 0 0 0 0 0 0 0 0 0 0 0 0 0 0 0 0 0 0 0 0 0 0 0 0 0 0 0 0 0 0 0
0 0 0 0 0 0 0 0 0 0 0 0 0 0 0 0 0 0 0 0 0 0 0 0 0 0 0 0 0 0 0 0 0 0 0 0 0 0 0 0 0 0 0 0 0 0 0 0 0
0 0 0 0 0 0 0 0 0 0 0 0 0 0 0 0 0 0 0 0 0 0 0 0 0 0 0 0 0 0 0 0 0 0 0 0 0 0 0 0 0 0 0 0 0 0 0 0 0
0 0 0 0 0 0 0 0 0 0 0 0 0 0 0 0 0 0 0 0 0 0 0 0 0 0 0 0 0 0 0 0 0 0 0 0 0 0 0 0 0 0 0 0 0 0 0 0 0
0 0 0 0 0 0 0 0 0 0 0 0 0 0 0 0 0 0 0 0 0 0 0 0 0 0 0 0 0 0 0 0 0 0 0 0 0 0 0 0 0 0 0 0 0 0 0 0 0
0 0 0 0 0 0 0 0 0 0 0 0 0 0 0 0 0 0 0 0 0 0 0 0 0 0 0 0 0 0 0 0 0 0 0 0 0 0 0 0 0 0 0 0 0 0 0 0 0
0 0 0 0 0 0 0 0 0 0 0 0 0 0 0 0 0 0 0 0 0 0 0 0 0 0 0 0 0 0 0 0 0 0 0 0 0 0 0 0 0 0 0 0 0 0 0 0 0
0 0 0 0 0 0 0 0 0 0 0 0 0 0 0 0 0 0 0 0 0 0 0 0 0 0 0 0 0 0 0 0 0 0 0 0 0 0 0 0 0 0 0 0 0 0 0 0 0
0 0 0 0 0 0 0 0 0 0 0 0 0 0 0 0 0 0 0 0 0 0 0 0 0 0 0 0 0 0 0 0 0 0 0 0 0 0 0 0 0 0 0 0 0 0 0 0 0
0 0 0 0 0 0 0 0 0 0 0 0 0 0 0 0 0 0 0 0 0 0 0 0 0 0 0 0 0 0 0 0 0 0 0 0 0 0 0 0 0 0 0 0 0 0 0 0 0
0 0 0 0 0 0 0 0 0 0 0 0 0 0 0 0 0 0 0 0 0 0 0 0 0 0 0 0 0 0 0 0 0 0 0 0 0 0 0 0 0 0 0 0 0 0 0 0 0
Wind_Speed
2 1 3 3 5 5 2 1 1 2 3 4 7 9 8 6 4 5 2 6 7 5 4 6 8 9 10 10 10 10 10 10 10 10 10 10 10 10 10 10 10 10 10 10 10 10 9 10 10
0 1 3 4 5 3 0 0 3 3 5 6 7 7 7 6 5 6 4 6 8 6 4 6 8 9 10 10 10 10 10 10 10 10 10 10 9 9 9 9 9 9 9 9 9 9 9 9 9
0 1 3 4 3 3 3 2 4 4 5 5 5 5 5 4 4 4 5 8 8 6 5 6 9 9 9 10 10 10 10 10 10 10 9 9 9 9 9 9 9 9 9 9 9 8 8 8 8
2 4 4 4 3 2 4 3 3 5 5 5 6 6 4 2 4 5 8 9 8 6 4 6 10 9 9 10 10 10 10 10 10 9 9 9 9 9 9 9 8 8 8 8 8 7 7 7 7
4 4 4 3 1 0 2 4 3 4 3 5 7 6 3 3 6 9 9 9 8 5 4 6 10 9 9 9 9 10 10 9 9 9 9 9 9 9 9 8 8 8 7 7 7 7 7 7 7
4 4 4 2 2 1 1 3 6 6 5 6 7 6 2 2 6 7 8 8 8 7 5 5 8 9 9 9 9 9 9 9 9 9 8 8 8 8 8 8 8 8 7 7 6 6 6 6 7
4 4 2 3 3 1 2 3 5 5 5 4 6 6 3 2 4 6 7 7 7 6 5 3 3 5 8 8 8 9 8 8 8 8 8 8 8 7 7 8 8 7 7 6 6 6 6 6 7
4 4 2 1 3 2 2 3 4 5 3 4 5 8 5 5 5 6 6 6 6 5 5 3 3 3 3 3 7 8 8 7 7 8 7 7 7 6 6 6 6 6 6 6 6 5 5 6 7
4 5 2 3 4 2 3 4 2 3 6 4 4 5 7 9 7 7 6 4 4 4 4 3 3 2 2 2 4 5 6 6 5 5 6 5 3 3 3 3 5 5 5 5 5 5 5 6 6
4 3 3 3 4 4 3 5 4 4 5 5 6 6 9 9 8 7 6 5 4 4 4 3 3 3 2 3 3 1 2 2 2 2 2 2 2 2 3 3 4 5 5 4 5 5 5 4 3
4 4 3 2 3 4 3 2 3 6 3 5 10 11 10 8 8 7 6 5 5 5 5 4 4 3 3 2 2 1 1 1 1 2 2 2 2 2 2 2 2 3 4 3 3 3 3 3 2
3 2 4 4 3 4 3 2 3 3 4 7 12 14 11 9 8 8 7 5 4 5 5 4 4 3 3 3 2 2 1 1 1 1 2 2 2 1 1 1 1 2 1 2 2 2 3 3 3
2 2 3 4 5 4 4 3 3 2 4 8 10 11 10 9 7 6 6 5 5 5 5 4 5 4 3 2 2 2 1 1 2 2 2 3 2 1 1 1 1 1 2 2 2 3 4 3 3
3 3 3 3 4 3 4 1 3 3 6 8 9 9 9 9 8 6 5 5 5 5 4 4 4 4 4 3 2 2 2 1 2 2 2 3 2 2 2 2 2 1 2 2 2 3 3 3 3
4 3 1 1 2 2 4 0 3 5 7 9 9 8 8 8 7 7 7 6 6 5 5 5 5 4 4 3 3 2 2 2 2 2 2 3 3 3 3 2 2 2 2 3 3 4 3 4 3
2 2 1 3 3 3 4 4 5 5 8 8 8 7 6 6 7 7 7 6 5 5 5 4 5 5 4 3 3 2 2 2 2 2 2 3 3 3 3 3 2 2 3 3 3 3 4 3 3
1 2 3 3 3 4 4 4 5 5 8 8 7 7 6 5 5 6 7 7 6 6 6 4 4 5 4 3 3 2 2 2 2 2 2 2 3 3 3 2 2 2 3 3 3 3 3 3 3
4 4 3 4 3 4 4 5 4 5 7 8 7 6 6 7 6 6 6 6 6 5 5 5 4 4 4 3 3 2 2 2 2 2 2 3 2 3 3 2 2 3 3 3 3 3 3 2 2
4 4 3 4 4 4 4 5 6 6 5 6 6 7 6 6 4 5 5 6 5 5 4 4 4 4 4 3 2 2 1 1 1 1 2 2 3 3 3 3 2 3 3 3 3 3 3 2 2
3 3 3 2 3 4 4 5 5 6 8 9 9 8 7 5 3 4 5 5 5 5 4 4 5 4 4 3 3 2 2 1 1 1 1 2 2 2 3 3 2 2 3 3 3 3 2 1 1
5 5 5 4 2 2 2 3 4 4 4 5 7 7 8 8 7 6 6 5 5 5 5 5 5 5 4 4 3 3 2 2 1 1 1 0 1 2 2 3 3 2 3 2 2 3 3 2 0
5 5 6 4 3 3 4 3 5 3 3 5 6 6 7 7 7 6 6 5 5 5 5 5 5 4 4 5 5 5 4 3 2 1 1 0 1 2 2 3 3 3 2 2 2 2 2 3 1
5 4 4 4 3 2 1 2 6 2 3 6 7 8 8 8 8 8 7 6 5 4 4 4 4 4 4 5 6 5 3 2 1 1 1 1 1 1 2 3 3 2 2 2 2 2 2 2 2
2 2 3 3 3 2 4 4 6 5 7 7 8 8 9 8 8 8 7 5 4 3 3 3 4 3 4 4 5 5 5 4 3 2 1 1 0 1 1 3 2 2 2 2 2 2 2 2 2
3 5 3 3 2 5 2 3 6 5 6 8 10 10 9 8 8 7 7 6 5 5 4 4 4 3 4 4 4 5 5 5 5 4 3 2 1 1 1 2 2 2 2 2 2 2 2 2 2
3 8 6 4 4 4 2 3 5 4 2 3 5 7 7 7 7 8 8 7 7 7 6 5 5 4 4 5 5 5 5 4 3 3 3 3 2 2 2 2 2 2 2 2 2 2 1 1 1
3 3 6 5 2 1 3 3 3 2 3 2 4 5 5 6 7 7 7 7 6 7 7 6 6 5 4 5 5 5 5 4 4 3 3 2 1 1 2 2 2 2 2 2 2 2 1 2 1
4 5 5 4 3 3 3 3 4 3 2 2 3 5 5 5 5 5 5 6 6 6 6 6 6 5 4 4 5 4 5 5 4 4 3 3 2 2 2 2 2 2 1 2 2 2 1 2 1
1 2 3 3 4 5 3 5 4 6 6 5 4 5 6 5 5 5 4 5 5 5 5 5 5 4 3 4 4 4 4 4 4 4 4 4 3 2 2 2 2 2 2 2 2 2 2 2 1
3 3 5 4 3 4 3 6 4 3 4 4 3 3 4 4 3 3 3 3 3 4 4 4 4 4 4 4 3 4 4 4 4 4 4 3 3 3 3 2 2 2 2 2 2 2 2 2 2
Wind_Direction
259 82 92 65 57 56 54 330 143 94 64 59 74 82 81 65 88 128 180 142 132 135 128 109 100 98 95 95 93 92 90 89 93 94 95 95 94 94 95 95 95 93 92 91 89 89 89 88 86
229 108 73 64 80 85 351 207 109 110 135 121 82 78 76 70 81 111 129 141 136 132 125 110 104 101 98 96 94 93 92 90 90 91 93 92 91 92 96 98 98 98 95 94 92 89 88 86 83
260 111 86 73 98 155 167 171 129 114 113 102 83 61 75 103 108 132 153 143 131 128 124 119 112 107 104 100 98 97 95 92 90 92 92 91 90 89 93 97 98 98 96 95 94 93 91 86 83
73 51 56 76 106 191 166 172 132 107 72 71 97 71 59 81 128 140 141 134 127 126 127 124 118 113 110 107 103 100 97 95 93 94 94 93 92 92 92 94 94 95 95 95 95 94 90 86 83
66 75 66 70 98 247 157 146 129 110 89 84 95 93 62 29 111 127 133 131 130 129 129 128 121 116 112 110 107 102 100 99 98 97 95 94 93 92 91 94 95 96 98 97 94 93 92 91 85
60 71 89 133 129 99 70 112 102 98 109 103 99 104 95 103 118 130 132 130 135 135 130 128 128 124 119 114 111 107 105 102 100 100 96 95 96 94 96 100 101 99 96 92 91 89 89 87 83
107 98 136 153 137 143 162 113 106 115 123 122 121 106 121 134 133 129 128 127 128 130 127 118 127 126 123 120 117 115 109 105 104 105 99 95 97 97 101 106 104 102 99 93 86 81 79 77 77
127 105 101 137 139 172 159 120 123 122 111 116 115 129 155 182 148 117 115 120 125 128 128 130 119 108 111 117 119 117 111 108 106 107 103 97 96 96 100 109 107 105 100 95 88 82 81 80 78
95 84 144 185 159 178 141 109 94 87 102 85 88 132 153 152 131 115 109 105 125 136 141 142 133 127 128 126 120 117 115 107 101 100 101 89 66 63 74 99 106 106 102 94 86 81 84 84 79
93 128 204 191 165 156 118 114 121 92 89 83 79 95 128 136 131 131 134 139 144 148 157 156 153 159 153 138 107 92 92 85 80 79 83 74 64 55 66 66 90 95 94 86 76 76 80 72 65
132 167 183 141 143 122 107 93 93 118 121 156 146 145 147 141 141 147 155 158 161 157 152 155 156 152 138 125 121 100 78 80 85 91 93 83 64 47 52 50 54 61 72 62 60 58 63 71 67
130 177 156 149 135 113 125 114 92 118 181 170 156 154 152 151 158 166 164 161 156 145 145 145 142 135 132 124 122 120 107 98 90 98 108 99 84 63 54 59 59 52 60 66 57 65 72 73 74
143 143 134 133 116 124 115 114 122 137 143 143 143 148 153 159 166 174 165 155 150 146 143 146 140 140 134 122 120 106 107 109 105 93 106 114 107 88 68 56 60 72 80 84 76 74 73 73 72
171 138 133 147 144 158 132 136 115 181 144 146 152 159 166 169 169 161 152 145 146 151 149 142 139 137 126 124 122 120 117 109 98 99 109 114 110 102 96 80 71 70 77 80 86 88 84 78 73
128 120 95 198 153 180 132 116 207 186 154 158 165 173 170 175 167 168 170 162 161 159 148 140 142 130 124 124 126 120 115 104 100 101 98 100 102 103 102 92 72 69 79 84 79 75 75 77 69
89 99 198 258 193 197 141 213 234 185 164 171 174 177 175 176 174 177 172 162 161 151 143 146 141 131 131 133 127 117 112 105 104 107 105 102 102 104 97 87 81 90 89 83 84 80 78 67 63
82 178 210 253 210 182 159 211 229 193 170 176 179 178 177 171 174 179 174 165 166 160 152 151 140 140 140 133 115 110 103 96 90 91 103 114 105 102 100 97 93 92 89 86 91 79 89 83 67
203 196 202 213 217 172 181 214 220 199 175 179 179 177 177 177 180 172 163 163 157 153 152 156 148 142 136 122 101 84 71 69 75 87 103 105 105 105 103 100 99 94 90 83 90 94 76 82 78
184 183 209 225 210 173 205 220 223 206 189 184 178 180 185 189 178 160 155 156 147 142 145 156 148 148 135 127 124 119 116 114 91 97 109 104 106 111 110 108 105 100 105 111 113 108 90 73 83
208 203 226 253 207 181 202 235 234 204 200 191 182 182 184 179 166 163 156 154 158 159 155 153 156 158 156 155 149 146 142 143 138 109 95 107 115 121 120 122 119 114 109 101 107 113 110 105 90
226 200 200 201 241 195 158 286 264 245 207 187 183 179 175 170 174 175 164 163 159 163 166 167 165 163 159 145 122 99 73 56 46 56 70 133 123 124 122 124 121 121 124 134 142 138 136 146 350
233 219 192 180 158 237 187 243 273 231 193 192 188 181 183 178 173 169 159 158 165 175 169 166 170 167 162 146 140 143 148 161 196 185 173 139 112 121 128 127 126 127 129 140 160 147 144 139 151
228 214 191 187 173 239 244 184 275 224 204 214 198 187 186 182 175 173 174 172 170 168 164 162 164 167 165 157 153 154 154 170 166 141 127 116 93 115 125 129 129 130 132 141 134 130 136 144 154
203 63 45 56 88 248 234 184 263 228 205 203 200 193 189 182 178 176 177 166 157 153 153 158 156 170 166 159 161 163 160 156 145 154 160 159 130 122 123 130 131 139 139 148 147 138 138 144 141
98 95 47 358 2 250 242 187 245 243 210 195 195 194 190 179 177 175 173 170 166 164 169 165 164 173 171 165 169 170 166 162 164 171 175 169 159 181 197 148 145 149 155 155 145 134 142 147 145
182 144 159 193 216 268 307 222 255 269 220 179 183 183 178 173 178 180 183 183 180 179 177 170 175 183 180 174 177 176 169 165 171 176 171 177 186 194 189 163 154 148 141 133 129 127 151 140 152
155 172 173 149 182 245 271 275 305 20 58 95 124 139 162 173 176 180 183 185 182 181 181 180 178 181 184 183 179 178 175 172 176 177 168 165 170 183 172 159 143 141 133 127 127 128 143 129 136
157 153 106 127 168 230 271 251 234 219 195 161 148 160 172 175 177 180 185 187 185 183 182 179 177 181 184 180 180 178 182 179 174 163 160 163 174 167 152 148 139 138 137 135 127 131 138 120 132
66 101 121 140 164 166 227 263 232 197 184 180 190 184 180 183 183 181 183 187 182 178 178 179 180 179 179 177 178 175 180 177 167 168 174 171 166 152 152 155 155 157 155 147 139 152 147 138 152
175 177 145 157 224 174 178 260 283 187 172 166 179 173 170 172 168 161 163 168 174 177 181 182 182 182 187 183 176 178 171 162 164 173 178 167 166 165 163 158 151 154 153 157 158 173 171 166 172